Regional Weather Roundup
Issued by NWS

Home | Current Version | Previous Version | Graphics & Text | Print | Product List | Glossary On
Versions: 1 2 3 4 5 6 7 8 9 10 11 12 13 14 15 16 17 18 19 20 21 22 23 24 25 26 27
000
ASUS45 KBOU 182206
RWRCO

WEATHER ROUNDUP FOR COLORADO
NATIONAL WEATHER SERVICE DENVER/BOULDER CO
400 PM MDT FRI APR 18 2014

NOTE: "FAIR" INDICATES FEW OR NO CLOUDS BELOW 12000 FEET WITH NO
SIGNIFICANT WEATHER AND/OR OBSTRUCTIONS TO VISIBILITY.

COZ001>005-013-030-031-182300-
...NORTHWEST COLORADO...

CITY           SKY/WX    TMP DP  RH WIND       PRES   REMARKS
CRAIG          CLOUDY    69  20  15 SW24G38   29.93F
HAYDEN         CLOUDY    70  25  18 SW20G32   29.98F
MEEKER         PTSUNNY   72  19  13 W24G40    29.96F
MOUNT WERNER   CLOUDY    50   3  14 SW20G30   30.19F
STEAMBOAT SPGS CLOUDY    67  10  11 SW10G24   29.97S
WALDEN         PTSUNNY   61  18  18 SW18G33   30.02F
$$

COZ006>008-011-182300-
...WEST CENTRAL VALLEYS...

CITY           SKY/WX    TMP DP  RH WIND       PRES   REMARKS
GRAND JUNCTION CLOUDY    74  25  16 W15G23    29.90F
MONTROSE       CLOUDY    73  21  14 SW14G28   29.97F
EAGLE          PTSUNNY   72  19  14 SW21G28   29.98F
RIFLE          PTSUNNY   75  24  15 W24G32    29.92F
DELTA          CLOUDY    77  18  10 SW25G33   29.93F
NUCLA            N/A     70  19  14 W14       30.03F
$$

COZ017>023-064>068-182300-
...SOUTHWEST COLORADO...

CITY           SKY/WX    TMP DP  RH WIND       PRES   REMARKS
DURANGO        CLOUDY    70  15  12 SW9G21    30.04F
CORTEZ         MOSUNNY   73  21  14 SW14G25   30.00F
PAGOSA SPRINGS CLOUDY    66  11  12 SW7       30.11F
TELLURIDE      CLOUDY    57  19  23 SW12G20   30.16F
WOLF CREEK PAS CLOUDY    41  18  38 SW24G35   30.32F
$$

COZ009-010-012-014-032>034-037-058>063-182300-
...CENTRAL COLORADO...

CITY           SKY/WX    TMP DP  RH WIND       PRES   REMARKS
ASPEN          PTSUNNY   63  20  19 VRB7      30.05F
BUENA VISTA    PTSUNNY   64  16  15 SW16G22   30.06F
COPPER MTN     PTSUNNY   45  14  29 SW15G28   30.28F
BERTHOUD PASS  FAIR      41  32  70 MISG      30.31F
COTTONWOOD PAS PTSUNNY   57   9  14 SW21G30   30.17F
GUNNISON       PTSUNNY   59  21  23 S3G32     30.12R
KREMMLING      PTSUNNY   66  18  15 W21       30.02F
LEADVILLE      PTSUNNY   51  15  23 W12G20    30.16F
MONARCH PASS   PTSUNNY   43  19  39 SW23G32   30.40F
SALIDA         PTSUNNY  N/A N/A N/A W15       30.12F
SUNLIGHT       PTSUNNY   48  23  37 SW6       30.23F
WILKERSON PASS MOSUNNY   50  18  27 SW14G26   30.26F
$$

COZ069>075-182300-
...SAN LUIS VALLEY/SANGRE DE CRISTO MOUNTAINS...

CITY           SKY/WX    TMP DP  RH WIND       PRES   REMARKS
ALAMOSA        PTSUNNY   67  21  17 W18G26    30.07F
LA VETA PASS   MOSUNNY   54  23  30 SW8G21    30.23F
SAGUACHE       CLOUDY    61  25  25 S14G31    30.09F
$$

COZ035-036-038>040-182300-
...NORTHERN COLORADO FRONT RANGE...

CITY           SKY/WX    TMP DP  RH WIND       PRES   REMARKS
DENVER INTL AP PTSUNNY   78  28  16 E10       29.86F
DMNS CITY PARK   N/A     79  24  13 N10G16    29.84F
AURORA         PTSUNNY   77  27  15 E12G20    29.86F
FRONT RANGE AP NOT AVBL
ERIE MUNI ARPT PTSUNNY   75  24  15 N8        29.85F
BOULDER MUN AP PTSUNNY   73  30  20 NE5       29.86F
CENTENNIAL     PTSUNNY   76  22  13 W10       29.86F
BROOMFIELD     MOSUNNY   57  25  28 N6        29.88F
FORT COLLINS   MOSUNNY   77  32  19 S7G18     29.84F
LONGMONT       MOSUNNY   79  28  15 CALM      29.87F
$$

COZ041-046-047-076>085-087-088-182300-
...PIKES PEAK/PALMER DIVIDE AND SOUTHERN FOOTHILLS...

CITY           SKY/WX    TMP DP  RH WIND       PRES   REMARKS
COLO. SPRINGS  PTSUNNY   74  25  16 S24       29.95F
A. F. ACADEMY  MOSUNNY   72  27  18 SE16G23   29.95F
ELLICOTT       NOT AVBL
FALCON         MOSUNNY   72  22  15 S17G28    30.00F
FORT CARSON    MOSUNNY   75  27  17 S18G30    29.92F
LIMON          SUNNY     75  23  14 S16G25    29.92F
MONUMENT HILL  MOSUNNY   68  28  22 S24       29.97F
TRINIDAD       SUNNY     76  21  12 SE12G20   29.96F
$$

COZ042>045-048>051-090-091-182300-
...NORTHEAST COLORADO...

CITY           SKY/WX    TMP DP  RH WIND       PRES   REMARKS
GREELEY ARPT   MOSUNNY   81  28  15 S13G22    29.85F
AKRON          SUNNY     77  25  14 SE13      29.88F
BURLINGTON     SUNNY     77  33  20 S18G29    29.93F
WRAY           SUNNY     80  35  19 S17G25    29.87F
STERLING       SUNNY     82  34  17 S12G25    29.83F
HOLYOKE        SUNNY     81  36  19 S20G28    29.86F
FORT MORGAN    SUNNY     80  23  12 SE14G22   29.86F
$$

COZ086-089-092>099-182300-
...SOUTHEAST COLORADO...

CITY           SKY/WX    TMP DP  RH WIND       PRES   REMARKS
PUEBLO         MOSUNNY   81  23  11 S18G24    29.87F
LA JUNTA       MOSUNNY   81  23  11 S8G20     29.88F
LAMAR          SUNNY     82  30  15 S12G24    29.87F
SPRINGFIELD      N/A     75  36  24 S25G35    29.95F
$$



USA.gov is the U.S. government's official web portal to all federal, state and local government web resources and services.